Total_Precipitation_Accumulation
1.50 1.41 1.33 1.28 1.14 1.07 1.07 1.16 1.12 0.96 0.86 0.78 0.66 0.54 0.51 0.51 0.49 0.52 0.53 0.54 0.65 0.90 1.23 1.39 1.38 1.31 1.26 1.31 1.28 1.18 1.11 1.02 0.94 0.90 0.94 0.98 0.94 0.95 0.99 0.98 0.96 0.95 0.96
1.72 1.63 1.45 1.37 1.27 1.15 1.13 1.21 1.22 1.10 1.01 0.89 0.79 0.68 0.61 0.58 0.51 0.50 0.53 0.56 0.58 0.71 1.03 1.38 1.57 1.61 1.59 1.63 1.54 1.41 1.25 1.13 1.05 0.98 0.96 0.99 0.97 0.99 1.06 1.05 1.04 1.02 1.01
1.91 1.86 1.71 1.48 1.35 1.33 1.32 1.33 1.38 1.35 1.21 1.04 0.93 0.85 0.76 0.68 0.60 0.55 0.56 0.57 0.57 0.55 0.75 1.13 1.48 1.61 1.69 1.76 1.78 1.69 1.49 1.30 1.16 1.07 1.01 1.02 1.02 0.99 0.98 1.04 1.08 1.09 1.12
2.06 2.12 1.93 1.74 1.60 1.56 1.55 1.49 1.40 1.33 1.23 1.09 0.98 0.91 0.85 0.79 0.71 0.69 0.70 0.64 0.60 0.52 0.59 0.81 1.06 1.33 1.56 1.64 1.81 1.95 1.75 1.54 1.32 1.17 1.12 1.14 1.15 1.09 1.07 1.11 1.13 1.14 1.16
2.30 2.29 2.17 2.00 1.92 1.83 1.78 1.71 1.57 1.41 1.29 1.16 1.05 1.03 0.97 0.89 0.83 0.79 0.73 0.68 0.66 0.62 0.61 0.64 0.73 0.89 1.13 1.36 1.61 1.86 1.92 1.78 1.55 1.41 1.26 1.20 1.17 1.16 1.20 1.24 1.26 1.25 1.29
2.71 2.52 2.46 2.35 2.25 2.08 1.98 1.97 1.84 1.62 1.44 1.37 1.29 1.17 1.08 0.98 0.95 0.90 0.83 0.76 0.73 0.72 0.74 0.73 0.75 0.75 0.83 1.05 1.38 1.69 1.94 2.05 1.85 1.58 1.41 1.30 1.29 1.29 1.35 1.43 1.48 1.52 1.54
3.01 2.85 2.66 2.63 2.55 2.34 2.09 2.08 2.11 1.93 1.74 1.68 1.64 1.41 1.22 1.09 1.00 0.93 0.95 0.94 0.85 0.80 0.82 0.87 0.91 0.85 0.72 0.77 1.01 1.27 1.56 1.82 1.94 1.85 1.63 1.50 1.48 1.52 1.60 1.69 1.77 1.78 1.77
3.21 3.03 2.87 2.76 2.70 2.64 2.39 2.20 2.25 2.21 2.03 1.98 1.99 1.95 1.75 1.53 1.20 1.00 0.96 0.96 0.94 0.94 0.89 0.87 0.89 0.88 0.84 0.74 0.76 0.89 1.04 1.34 1.70 1.99 2.05 1.92 1.84 1.85 1.93 2.04 2.12 2.17 2.14
3.45 3.23 3.03 2.99 2.89 2.84 2.75 2.53 2.40 2.36 2.30 2.20 2.18 2.36 2.16 1.80 1.42 1.17 1.07 1.03 1.00 1.03 1.04 1.00 0.96 0.92 0.90 0.84 0.80 0.82 0.85 1.03 1.41 1.83 2.18 2.30 2.27 2.29 2.45 2.59 2.63 2.68 2.63
3.51 3.48 3.29 3.10 3.01 2.95 2.89 2.93 2.90 2.72 2.59 2.40 2.24 2.10 2.01 1.83 1.77 1.53 1.25 1.20 1.15 1.08 1.11 1.11 1.06 1.04 0.99 0.96 0.96 0.96 0.96 1.03 1.31 1.80 2.22 2.50 2.63 2.83 3.11 3.24 3.23 3.23 3.08
3.37 3.50 3.45 3.26 2.98 2.81 2.72 2.79 2.87 2.91 2.75 2.51 2.33 2.18 2.04 1.81 1.71 1.76 1.55 1.36 1.34 1.20 1.14 1.17 1.19 1.20 1.22 1.20 1.15 1.19 1.23 1.23 1.48 1.93 2.37 2.78 3.10 3.36 3.62 3.80 3.79 3.70 3.55
3.23 3.30 3.32 3.21 3.04 2.82 2.64 2.66 2.78 2.85 2.88 2.77 2.53 2.31 2.20 2.03 1.77 1.78 1.72 1.54 1.53 1.41 1.27 1.25 1.29 1.35 1.36 1.41 1.41 1.51 1.45 1.49 1.65 1.95 2.42 2.83 3.14 3.35 3.57 3.91 4.09 4.04 3.96
3.11 3.18 3.30 3.20 3.08 2.88 2.76 2.66 2.68 2.68 2.69 2.72 2.63 2.44 2.22 2.04 1.89 1.95 2.00 1.86 1.73 1.57 1.56 1.46 1.34 1.33 1.36 1.41 1.51 1.69 1.53 1.53 1.56 1.76 2.18 2.60 2.71 2.80 2.95 3.21 3.57 3.79 3.84
2.98 3.01 3.20 3.22 3.12 2.98 2.86 2.74 2.64 2.57 2.56 2.54 2.46 2.36 2.22 2.01 1.91 1.95 2.09 2.27 2.23 1.89 1.68 1.60 1.47 1.42 1.42 1.43 1.55 1.73 1.52 1.67 1.61 1.69 1.91 2.13 2.10 2.05 2.17 2.41 2.65 2.96 3.21
2.80 2.79 2.90 2.99 2.99 2.94 2.89 2.80 2.68 2.50 2.41 2.38 2.29 2.18 2.11 1.98 1.87 1.85 1.94 2.17 2.53 2.46 1.97 1.60 1.56 1.52 1.52 1.52 1.65 1.55 1.41 1.68 1.69 1.64 1.66 1.70 1.68 1.68 1.78 1.94 2.13 2.39 2.61
2.65 2.57 2.60 2.67 2.75 2.73 2.73 2.77 2.66 2.49 2.43 2.30 2.19 2.12 2.03 1.94 1.92 1.92 1.96 2.04 2.21 2.40 2.18 1.62 1.44 1.44 1.51 1.53 1.72 1.52 1.45 1.71 1.64 1.59 1.53 1.50 1.51 1.57 1.66 1.81 1.90 2.05 2.30
2.47 2.51 2.47 2.52 2.60 2.64 2.60 2.62 2.62 2.52 2.40 2.28 2.17 2.08 1.98 1.89 1.92 1.90 1.95 2.02 2.07 2.15 2.13 1.63 1.37 1.37 1.50 1.54 1.61 1.54 1.48 1.42 1.34 1.47 1.42 1.40 1.39 1.43 1.55 1.69 1.80 1.89 2.04
2.21 2.25 2.29 2.34 2.38 2.42 2.44 2.45 2.44 2.42 2.38 2.28 2.20 2.16 2.06 2.00 2.07 2.06 2.09 2.09 2.05 2.02 2.03 1.82 1.49 1.39 1.40 1.36 1.35 1.40 1.43 1.41 1.28 1.44 1.40 1.35 1.39 1.44 1.51 1.56 1.63 1.75 1.85
2.07 2.13 2.13 2.21 2.23 2.22 2.28 2.30 2.30 2.32 2.33 2.29 2.25 2.24 2.19 2.18 2.21 2.16 2.10 2.07 1.99 1.94 1.91 1.87 1.66 1.48 1.47 1.41 1.42 1.40 1.37 1.38 1.28 1.37 1.41 1.38 1.40 1.44 1.47 1.53 1.57 1.59 1.64
1.84 1.90 1.96 1.99 2.03 2.05 2.12 2.21 2.27 2.28 2.28 2.28 2.26 2.23 2.18 2.16 2.14 2.08 2.02 1.95 1.94 1.99 1.99 1.98 1.85 1.68 1.60 1.55 1.58 1.62 1.58 1.46 1.39 1.25 1.32 1.30 1.32 1.36 1.38 1.40 1.43 1.44 1.48
1.74 1.78 1.82 1.86 1.89 1.92 2.01 2.11 2.23 2.30 2.30 2.30 2.29 2.22 2.11 2.07 2.02 2.00 1.97 1.90 1.92 2.06 2.12 2.12 1.99 1.83 1.70 1.68 1.70 1.60 1.63 1.58 1.51 1.37 1.31 1.24 1.18 1.15 1.17 1.27 1.37 1.46 1.54
1.76 1.78 1.85 1.89 1.94 1.97 2.20 2.32 2.31 2.30 2.29 2.23 2.13 2.00 1.94 1.96 1.90 1.96 2.00 1.97 2.04 2.20 2.31 2.24 2.03 1.78 1.54 1.46 1.54 1.69 1.84 1.91 1.81 1.45 1.37 1.38 1.29 1.27 1.18 1.16 1.39 1.53 1.63
1.89 1.96 1.99 2.06 2.08 2.11 2.21 2.10 2.15 2.13 2.15 2.13 2.01 1.87 1.79 1.69 1.71 1.58 1.73 1.89 1.91 2.00 2.04 1.98 1.89 1.60 1.45 1.41 1.68 1.96 1.96 1.88 1.61 1.37 1.46 1.61 1.45 1.39 1.28 1.35 1.55 1.50 1.62
1.86 2.01 2.06 2.11 2.10 2.11 2.14 2.01 2.00 1.83 1.80 1.82 1.82 1.78 1.71 1.65 1.59 1.59 1.65 1.74 1.64 1.58 1.56 1.46 1.46 1.46 1.45 1.48 1.73 2.03 2.05 2.03 1.78 1.55 1.54 1.73 1.54 1.45 1.34 1.38 1.57 1.48 1.52
1.72 1.80 1.88 1.91 1.87 1.88 1.92 1.85 1.86 1.73 1.67 1.61 1.56 1.59 1.63 1.57 1.68 1.84 1.81 1.76 1.58 1.41 1.42 1.49 1.55 1.55 1.65 1.69 1.81 2.21 2.40 2.45 2.19 1.74 1.51 1.52 1.40 1.38 1.44 1.46 1.53 1.61 1.55
1.55 1.52 1.54 1.52 1.50 1.52 1.63 1.64 1.68 1.59 1.58 1.50 1.47 1.50 1.65 1.60 1.73 1.87 1.76 1.74 1.64 1.41 1.32 1.32 1.31 1.31 1.30 1.40 1.67 1.91 2.37 2.74 2.38 1.93 1.43 1.49 1.49 1.60 1.93 1.60 1.48 1.51 1.55